Showing default

O3B FM18, 44115

Orbit data source: Space-Track

O3B FM18, 44115 is a payload satellite owned by O3B SES (JE) that was launched on Thu, 04 Apr 2019 UTC via a SOYUZ-ST-B launch vehicle from the French Guiana (FRGUI). Payloads include a variety of satellites, spacecraft, and rockets equipped with specific instruments for various scientific and technological missions. These include communications satellites like Starlink; space stations such as the ISS; scientific satellites like the Hubble; Earth observation satellites from companies like Planet Labs, Umbra, and HawkEye 360; GPS; miniature CubeSats for education and research; and military/defense satellites.

Loading next visibility...
O3B FM18 details
Identifier
44115, 2019-020D
Orbit
Active
Last TLE update13 hours ago
Origin
Flag of JEO3B SES (JE / O3B)
ManufacturerThales Alenia
MissionOperational Commercial Communications
Bus & MotorPRISMA?, LS-400 AOCS?
Mass700 kg wet, ~500 kg dry
Launch date (UTC)
2019-04-04 (6 years ago)
Launch vehicle
SOYUZ-ST-B
Launch site
French Guiana (FRGUI)
Object type
Payload
Rocket body
Debris
Shape & HBRTrap Box + 2 Pan, 12 m
Radar Cross Section21.980 m², Large (>1 m²)

Expand to show TLE details & history

TLE from 13 hours ago
0 O3B FM18
1 44115U 19020D   24361.15965635 -.00000013  00000-0  00000-0 0  9998
2 44115   0.0523 358.4772 0002962 278.1760  83.3146  5.00114989104730
Epoch: 2024-12-26T03:49Z
Definitive object data (Epoch: 2024-12-26T03:49:54.308Z)
Latitude0.00174°
Longitude-152.61939°
Altitude8,063.885 km
Speed5.254 km/s
True Right ascension23h 59m 59s
True Declination0° 00' 06"
Sunlit
Object was in daylight at TLE epoch
Visualization TLE readout
Latitude-0.05116°
Longitude88.99028°
Altitude8,060.895 km
Speed5.256 km/s
Apparent Right ascension16h 09m 13s
Apparent Declination-23° 10' 07"
Sunlit
Object is in daylight
Visualization observer readout
Local Sidereal Time16:01:01
Azimuth177.887° S
Elevation26.886°
Doppler factor1
Orbital elements
Apogee altitude8,073.238 km
Perigee altitude8,064.679 km
Semi-major axis14,447.096 km
Eccentricity0.0002962
Inclination0.0523°
RAAN358.4772°
Arg. of periapsis278.176°
True anomaly83.34831°
Mean anomaly83.3146°
Eccentric anomaly83.33146°
Mean motion1.24989 °/min
BSTARUnknown
Orbital period288.02 mins
Loading maneuver chart data...
Loading historical data...
Loading historical data...
Loading historical data...
Loading historical data...
Loading historical data...
Loading historical data...
Loading historical data...
Other satellites on launch #20 in the year 2019 (2019-04-04 UTC)

O3B FM18 Visibility forecast

Observer location: undefined°, undefined

Span
Click to sort rows by Start time (UTC) header in descending order
Start Az.
Max El. time (UTC)
Max El. Az.
Max El.
End time (UTC)
End Az.
38 mins2024-12-26 16:38:48.930Z177.889° S2024-12-26 16:38:48.930Z177.889° S24.298°2024-12-26 17:16:48.930Z128.014° SE
78 mins2024-12-26 21:58:48.930Z231.231° WSW2024-12-26 22:37:48.930Z179.375° S24.34°2024-12-26 23:16:48.930Z127.933° SE
78 mins2024-12-27 03:58:48.930Z231.252° WSW2024-12-27 04:37:48.930Z179.386° S24.422°2024-12-27 05:16:48.930Z127.949° SE
78 mins2024-12-27 09:58:48.930Z231.32° WSW2024-12-27 10:37:48.930Z179.461° S24.397°2024-12-27 11:16:48.930Z128.031° SE
40 mins2024-12-27 15:58:48.930Z231.299° WSW2024-12-27 16:37:48.930Z179.452° S24.315°2024-12-27 16:38:48.930Z177.893° S
|